Location: Newark
(6.7500°N, 43.3333°E)
Time: 21:54:55
(UTC+00:00)

Hubble Space Telescope - Visible Passes

Search period start: 18 July 2019 00:00
Search period end: 28 July 2019 00:00
Orbit: 536 x 540 km, 28.5° (Epoch: 18 July)

Date Brightness Start Highest point End Pass type
(mag) Time Alt. Az. Time Alt. Az. Time Alt. Az.
18 Jul 2.4 02:13:39 10° SSW 02:17:09 26° SSE 02:20:39 10° E visible
19 Jul 1.8 02:03:47 16° SSW 02:06:37 37° SSE 02:10:26 10° E visible
20 Jul 1.2 01:54:00 26° SW 01:56:05 53° SSE 02:00:06 10° ENE visible
21 Jul 0.7 01:44:12 41° SW 01:45:32 78° SSE 01:49:39 10° ENE visible
22 Jul 0.7 01:34:23 59° W 01:35:01 74° NNW 01:39:08 10° NE visible
23 Jul 1.1 01:24:31 51° NNW 01:24:31 51° NNW 01:28:30 10° NE visible
24 Jul 2.0 01:14:37 34° N 01:14:37 34° N 01:17:49 10° NE visible
25 Jul 2.7 01:04:42 23° N 01:04:42 23° N 01:07:01 10° NNE visible
26 Jul 3.2 00:54:44 16° N 00:54:44 16° N 00:56:09 10° NNE visible
27 Jul 3.7 00:44:44 11° N 00:44:44 11° N 00:45:09 10° NNE visible
